SCP
0 0 0 0 0 0 0 0 0 -0 -0 -0 -0 0 -0 -0 -0 -0 -0 -0 0 0 0 0 0 0 0 0 0 0 0 0 0 0 0 0 0 0
0 0 0 0 0 0 0 0 0 0 0 0 0 -0 0 0 -0 -0 -0 -0 -0 0 -0 0 0 0 0 0 0 0 0 0 0 0 0 0 0 0
0 0 0 0 0 0 0 0 0 0 0 0 0 0 -0 -0 -0 -0 -0 -0 -0 0 0 0 0 0 0 0 0 0 0 0 0 0 0 0 0 0
0 0 0 0 0 0 0 0 0 0 0 0 0 0 -0 -0 -0 -0 -0 -0 -0 0 0 0 0 0 0 0 0 0 0 0 0 0 0 0 0 0
0 0 0 0 0 0 0 0 0 0 0 0 0 0 0 -0 -0 -0 -0 -0 -0 0 0 0 0 0 0 0 0 0 0 0 0 0 0 0 0 0
0 0 0 0 0 0 0 0 0 0 0 0 0 0 0 0 0 -0 -0 0 0 -0 0 0 0 0 0 0 0 0 0 0 0 0 0 0 0 0
0 0 0 0 0 0 0 0 0 0 0 0 0 0 0 0 0 0 0 0 0 0 0 0 0 0 0 0 0 0 0 0 0 0 0 0 0 0
0 0 0 0 0 0 0 0 0 0 0 0 0 0 0 0 0 0 0 0 0 0 0 0 0 0 0 0 0 0 0 0 0 0 0 0 0 0
0 0 0 0 0 0 0 0 0 0 0 0 0 0 0 0 0 0 0 0 0 0 0 0 0 0 0 0 0 0 0 0 0 0 0 0 0 0
0 0 0 0 0 0 0 0 0 0 0 0 0 0 0 0 0 0 0 0 0 0 0 0 0 0 0 0 0 0 0 0 0 0 0 0 0 0
0 0 0 0 0 0 0 0 0 0 0 0 0 0 0 0 0 0 0 0 0 0 0 0 0 0 0 0 0 0 0 0 0 0 0 0 0 0
0 0 0 0 0 0 0 0 0 0 0 0 0 0 0 0 0 0 0 0 0 0 0 0 0 0 -0 0 0 0 0 0 0 0 0 0 0 0
0 0 0 0 0 0 0 0 0 0 0 0 0 0 0 0 0 0 0 0 0 0 0 0 0 0 0 0 0 0 0 0 0 0 0 0 0 0
0 0 0 0 0 0 0 0 0 0 0 0 0 0 0 0 0 0 0 0 0 0 0 0 0 0 0 0 0 0 0 0 0 0 0 0 0 0
0 0 0 0 0 0 0 0 0 0 0 0 0 0 0 0 0 0 0 0 0 0 0 0 0 0 0 0 0 0 0 0 0 0 0 0 0 0
0 0 0 0 0 0 0 0 0 0 0 0 0 0 0 0 0 0 0 0 0 0 0 0 0 0 0 0 0 0 0 0 0 0 0 0 0 0
0 0 0 0 0 0 0 0 0 0 0 0 0 0 0 0 0 0 0 0 0 0 0 0 0 0 0 0 0 0 0 0 0 0 0 0 0 0
0 0 0 0 0 0 0 0 0 0 0 0 0 0 0 0 0 0 0 0 0 0 0 0 0 0 0 0 0 0 0 0 0 0 0 0 0 0
0 0 0 0 0 0 0 0 0 0 0 0 0 0 0 0 0 0 0 0 0 0 0 0 0 0 0 0 0 0 0 0 0 0 0 0 0 0
0 0 0 0 0 0 0 0 0 0 0 0 0 0 0 0 0 0 0 0 0 0 0 0 0 0 0 0 0 0 0 0 0 0 0 0 0 0
0 0 0 0 0 0 0 0 0 0 0 0 0 0 0 0 0 0 0 0 0 0 0 0 0 0 0 0 0 0 0 0 0 0 0 0 0 0
0 0 0 0 0 0 0 0 0 0 0 0 0 0 0 0 0 0 0 0 0 0 0 0 0 0 0 0 0 0 0 0 0 0 0 0 0 -0
0 0 0 0 0 0 0 0 0 0 0 0 0 0 0 0 0 0 0 0 0 0 0 0 0 0 0 0 0 0 0 -0 0 0 0 0 0 0
Wind_Speed_500mb
28 28 32 34 37 41 43 46 45 54 82 87 87 89 90 93 92 92 91 87 86 87 83 78 73 72 71 69 69 68 66 61 65 74 72 72 86 76
29 30 33 36 38 42 45 48 46 46 57 91 93 90 92 92 92 92 92 91 85 81 76 74 73 70 71 72 71 70 70 69 66 64 74 72 74 80
32 34 36 40 43 46 49 52 56 56 65 96 91 96 96 94 93 91 92 90 87 78 71 61 58 60 59 63 65 66 69 70 71 69 65 74 72 82
37 39 42 44 46 49 53 57 62 64 66 87 96 100 98 93 92 89 85 83 81 76 55 60 54 54 56 56 55 61 66 70 73 74 73 69 74 75
42 43 45 47 49 52 56 61 64 68 70 79 98 94 96 92 91 83 78 78 77 76 71 67 67 63 57 64 62 57 56 52 54 68 73 73 70 75
45 47 48 50 52 55 59 61 67 71 74 79 89 94 93 89 76 77 89 84 84 74 69 66 59 57 59 53 60 65 53 45 35 35 52 72 75 72
47 50 52 53 54 57 60 62 65 69 73 77 84 87 87 86 83 81 79 88 91 85 85 76 79 79 69 63 59 51 64 69 63 58 54 55 71 76
52 53 54 55 55 57 59 59 57 56 66 68 76 76 88 87 87 85 89 89 98 85 79 94 83 82 78 73 64 54 55 55 56 56 57 63 67 71
54 55 56 56 57 58 61 59 61 64 53 62 73 78 88 83 80 87 89 90 95 91 81 83 77 81 86 78 65 59 56 53 53 54 56 62 55 61
56 56 58 57 56 59 59 63 67 70 72 65 70 78 82 84 86 86 84 92 90 77 68 92 88 84 74 68 70 64 56 50 42 40 44 50 50 59
59 57 57 58 55 53 47 61 70 77 73 69 68 63 67 71 68 71 76 78 79 69 65 76 74 74 81 80 60 27 26 41 57 65 67 61 51 48
62 61 60 57 50 38 45 56 73 71 70 75 73 72 66 64 59 49 53 62 66 64 47 53 76 75 67 63 24 50 75 51 53 54 56 55 58 57
63 63 59 54 46 40 40 57 61 54 67 65 68 67 63 58 54 51 46 57 69 74 72 73 80 83 76 75 85 71 63 65 68 66 63 59 52 51
65 62 59 52 40 41 48 60 49 52 57 58 60 60 63 64 62 59 57 55 52 55 60 58 62 64 72 81 75 70 67 69 70 70 63 61 59 54
61 60 47 47 56 62 61 52 52 51 52 52 54 56 59 62 64 63 59 55 55 53 51 46 48 49 52 66 74 75 73 70 64 65 67 66 64 66
58 57 55 56 59 62 64 51 46 45 46 47 51 54 57 61 65 65 63 60 62 60 48 48 44 44 54 61 67 74 67 75 67 67 69 71 68 66
52 61 62 63 66 65 57 48 45 42 44 46 49 53 56 60 63 64 61 60 61 65 64 53 50 46 50 55 64 66 68 66 66 71 72 79 78 75
56 69 70 72 69 64 54 48 45 45 46 47 49 51 54 58 63 64 61 59 61 65 64 61 61 62 58 52 47 52 61 69 66 76 79 79 76 74
72 74 71 71 66 58 51 47 47 46 48 48 49 48 50 54 59 63 64 61 62 64 63 60 59 57 63 63 63 45 50 65 70 71 71 73 71 49
77 73 73 69 62 54 49 47 47 48 48 48 46 45 45 49 56 59 62 61 61 66 66 61 57 56 57 67 76 67 49 57 66 65 70 56 48 42
76 78 72 68 58 51 48 46 47 48 47 46 43 42 41 45 52 55 59 57 61 63 65 64 57 51 52 53 61 65 62 50 45 52 45 45 40 40
73 73 67 61 53 48 47 47 48 46 44 42 39 38 37 40 48 53 54 57 62 62 62 61 57 54 48 44 53 57 56 43 34 28 24 22 20 21
53 56 56 53 46 44 46 48 47 43 40 38 37 36 34 38 43 46 49 53 59 60 59 62 57 48 46 43 44 45 42 45 43 36 26 23 21 19
Wind_Direction_500mb
329 331 332 333 334 331 333 330 327 317 319 325 325 327 324 321 318 316 314 312 311 308 305 301 298 294 290 287 282 278 277 279 271 266 265 255 244 247
324 329 328 327 328 327 329 327 323 316 306 319 321 320 319 317 315 313 312 311 310 309 310 305 301 296 291 287 285 280 275 272 274 270 263 261 250 244
323 323 323 324 326 326 326 325 322 318 309 318 318 318 318 317 316 314 313 312 311 311 310 315 312 310 304 299 294 288 281 273 269 269 268 260 255 245
319 318 320 321 321 321 322 322 320 318 313 313 317 319 317 318 320 320 318 317 314 312 307 296 293 296 283 286 298 297 290 280 268 265 262 262 255 251
316 314 314 312 314 317 318 318 317 315 314 313 314 316 317 322 324 325 325 321 317 314 311 310 307 303 296 283 287 284 278 288 291 271 265 262 261 250
311 309 307 308 311 313 313 315 316 317 315 314 314 317 320 324 327 327 324 323 322 323 323 322 317 315 308 300 279 275 272 281 284 276 275 261 258 257
310 308 306 305 307 309 313 315 315 316 316 316 315 317 318 322 320 319 312 318 319 320 320 322 319 319 317 314 313 296 275 271 274 283 283 263 260 256
310 307 304 304 305 307 309 312 315 313 310 309 312 305 308 313 313 310 310 309 306 317 315 313 318 315 316 317 314 305 301 292 288 284 282 281 273 260
309 306 304 304 304 306 309 313 314 317 304 302 302 309 311 316 313 311 309 304 300 308 308 306 310 305 307 309 308 304 300 299 296 292 287 283 270 273
308 305 303 303 304 306 312 317 313 308 307 305 299 297 298 303 301 300 299 296 293 297 303 299 304 304 311 310 310 312 302 303 300 293 291 293 292 272
304 301 299 301 304 310 309 302 302 306 311 307 306 305 303 301 297 295 291 294 300 304 304 302 307 307 309 310 322 307 313 311 302 299 292 289 282 271
300 298 298 301 300 293 297 297 303 313 314 315 317 316 317 314 310 299 297 301 304 308 309 296 299 307 309 308 298 294 305 311 313 316 311 298 286 277
294 295 295 296 295 291 290 298 306 311 303 313 316 321 326 327 323 317 299 287 290 290 288 291 293 295 292 291 298 307 313 317 316 319 320 323 298 276
293 293 293 294 289 284 297 308 306 302 311 314 320 327 331 334 332 324 316 309 303 295 298 295 294 294 296 298 296 307 310 310 315 318 322 319 316 300
289 289 293 283 282 290 301 307 305 308 313 319 324 329 332 331 329 330 326 322 316 312 311 307 305 302 293 291 296 302 308 311 315 314 317 321 317 310
287 284 278 283 291 299 303 304 304 309 315 320 322 328 328 330 334 336 332 332 328 324 319 320 314 308 300 297 299 298 306 298 311 312 315 314 315 311
287 288 286 287 291 296 299 300 304 309 313 317 321 324 326 331 334 336 335 334 332 331 328 324 322 309 299 296 295 300 304 307 311 313 314 311 313 314
273 270 276 282 288 294 294 298 302 307 313 316 318 321 325 329 332 336 338 335 332 332 329 329 327 324 320 313 302 306 308 308 313 315 312 306 313 320
264 271 275 280 286 289 290 295 300 305 310 314 314 319 322 325 333 335 337 337 334 333 331 331 331 332 321 308 316 310 299 306 312 313 314 308 306 312
266 269 275 279 283 283 286 291 297 303 307 310 312 316 320 325 331 335 337 336 338 337 333 334 335 333 317 308 312 314 327 325 323 317 318 307 308 307
264 269 274 276 278 279 284 290 296 302 306 308 310 314 319 325 330 334 335 337 342 337 333 333 335 334 329 327 315 322 328 326 312 312 315 300 310 314
263 267 270 271 275 279 284 290 295 299 303 304 306 311 315 324 331 332 337 342 343 338 335 333 337 339 338 335 329 326 327 330 326 313 308 304 321 337
270 270 266 268 273 279 285 290 293 297 301 301 305 308 312 322 330 332 337 346 342 340 342 339 340 342 343 342 330 329 325 323 325 321 314 308 307 296
Wind_Speed_850mb
28 28 32 34 37 41 43 46 45 54 82 87 87 89 90 93 92 92 91 87 86 87 83 78 73 72 71 69 69 68 66 61 65 74 72 72 86 76
29 30 33 36 38 42 45 48 46 46 57 91 93 90 92 92 92 92 92 91 85 81 76 74 73 70 71 72 71 70 70 69 66 64 74 72 74 80
32 34 36 40 43 46 49 52 56 56 65 96 91 96 96 94 93 91 92 90 87 78 71 61 58 60 59 63 65 66 69 70 71 69 65 74 72 82
37 39 42 44 46 49 53 57 62 64 66 87 96 100 98 93 92 89 85 83 81 76 55 60 54 54 56 56 55 61 66 70 73 74 73 69 74 75
42 43 45 47 49 52 56 61 64 68 70 79 98 94 96 92 91 83 78 78 77 76 71 67 67 63 57 64 62 57 56 52 54 68 73 73 70 75
45 47 48 50 52 55 59 61 67 71 74 79 89 94 93 89 76 77 89 84 84 74 69 66 59 57 59 53 60 65 53 45 35 35 52 72 75 72
47 50 52 53 54 57 60 62 65 69 73 77 84 87 87 86 83 81 79 88 91 85 85 76 79 79 69 63 59 51 64 69 63 58 54 55 71 76
52 53 54 55 55 57 59 59 57 56 66 68 76 76 88 87 87 85 89 89 98 85 79 94 83 82 78 73 64 54 55 55 56 56 57 63 67 71
54 55 56 56 57 58 61 59 61 64 53 62 73 78 88 83 80 87 89 90 95 91 81 83 77 81 86 78 65 59 56 53 53 54 56 62 55 61
56 56 58 57 56 59 59 63 67 70 72 65 70 78 82 84 86 86 84 92 90 77 68 92 88 84 74 68 70 64 56 50 42 40 44 50 50 59
59 57 57 58 55 53 47 61 70 77 73 69 68 63 67 71 68 71 76 78 79 69 65 76 74 74 81 80 60 27 26 41 57 65 67 61 51 48
62 61 60 57 50 38 45 56 73 71 70 75 73 72 66 64 59 49 53 62 66 64 47 53 76 75 67 63 24 50 75 51 53 54 56 55 58 57
63 63 59 54 46 40 40 57 61 54 67 65 68 67 63 58 54 51 46 57 69 74 72 73 80 83 76 75 85 71 63 65 68 66 63 59 52 51
65 62 59 52 40 41 48 60 49 52 57 58 60 60 63 64 62 59 57 55 52 55 60 58 62 64 72 81 75 70 67 69 70 70 63 61 59 54
61 60 47 47 56 62 61 52 52 51 52 52 54 56 59 62 64 63 59 55 55 53 51 46 48 49 52 66 74 75 73 70 64 65 67 66 64 66
58 57 55 56 59 62 64 51 46 45 46 47 51 54 57 61 65 65 63 60 62 60 48 48 44 44 54 61 67 74 67 75 67 67 69 71 68 66
52 61 62 63 66 65 57 48 45 42 44 46 49 53 56 60 63 64 61 60 61 65 64 53 50 46 50 55 64 66 68 66 66 71 72 79 78 75
56 69 70 72 69 64 54 48 45 45 46 47 49 51 54 58 63 64 61 59 61 65 64 61 61 62 58 52 47 52 61 69 66 76 79 79 76 74
72 74 71 71 66 58 51 47 47 46 48 48 49 48 50 54 59 63 64 61 62 64 63 60 59 57 63 63 63 45 50 65 70 71 71 73 71 49
77 73 73 69 62 54 49 47 47 48 48 48 46 45 45 49 56 59 62 61 61 66 66 61 57 56 57 67 76 67 49 57 66 65 70 56 48 42
76 78 72 68 58 51 48 46 47 48 47 46 43 42 41 45 52 55 59 57 61 63 65 64 57 51 52 53 61 65 62 50 45 52 45 45 40 40
73 73 67 61 53 48 47 47 48 46 44 42 39 38 37 40 48 53 54 57 62 62 62 61 57 54 48 44 53 57 56 43 34 28 24 22 20 21
53 56 56 53 46 44 46 48 47 43 40 38 37 36 34 38 43 46 49 53 59 60 59 62 57 48 46 43 44 45 42 45 43 36 26 23 21 19
Wind_Direction_850mb
329 331 332 333 334 331 333 330 327 317 319 325 325 327 324 321 318 316 314 312 311 308 305 301 298 294 290 287 282 278 277 279 271 266 265 255 244 247
324 329 328 327 328 327 329 327 323 316 306 319 321 320 319 317 315 313 312 311 310 309 310 305 301 296 291 287 285 280 275 272 274 270 263 261 250 244
323 323 323 324 326 326 326 325 322 318 309 318 318 318 318 317 316 314 313 312 311 311 310 315 312 310 304 299 294 288 281 273 269 269 268 260 255 245
319 318 320 321 321 321 322 322 320 318 313 313 317 319 317 318 320 320 318 317 314 312 307 296 293 296 283 286 298 297 290 280 268 265 262 262 255 251
316 314 314 312 314 317 318 318 317 315 314 313 314 316 317 322 324 325 325 321 317 314 311 310 307 303 296 283 287 284 278 288 291 271 265 262 261 250
311 309 307 308 311 313 313 315 316 317 315 314 314 317 320 324 327 327 324 323 322 323 323 322 317 315 308 300 279 275 272 281 284 276 275 261 258 257
310 308 306 305 307 309 313 315 315 316 316 316 315 317 318 322 320 319 312 318 319 320 320 322 319 319 317 314 313 296 275 271 274 283 283 263 260 256
310 307 304 304 305 307 309 312 315 313 310 309 312 305 308 313 313 310 310 309 306 317 315 313 318 315 316 317 314 305 301 292 288 284 282 281 273 260
309 306 304 304 304 306 309 313 314 317 304 302 302 309 311 316 313 311 309 304 300 308 308 306 310 305 307 309 308 304 300 299 296 292 287 283 270 273
308 305 303 303 304 306 312 317 313 308 307 305 299 297 298 303 301 300 299 296 293 297 303 299 304 304 311 310 310 312 302 303 300 293 291 293 292 272
304 301 299 301 304 310 309 302 302 306 311 307 306 305 303 301 297 295 291 294 300 304 304 302 307 307 309 310 322 307 313 311 302 299 292 289 282 271
300 298 298 301 300 293 297 297 303 313 314 315 317 316 317 314 310 299 297 301 304 308 309 296 299 307 309 308 298 294 305 311 313 316 311 298 286 277
294 295 295 296 295 291 290 298 306 311 303 313 316 321 326 327 323 317 299 287 290 290 288 291 293 295 292 291 298 307 313 317 316 319 320 323 298 276
293 293 293 294 289 284 297 308 306 302 311 314 320 327 331 334 332 324 316 309 303 295 298 295 294 294 296 298 296 307 310 310 315 318 322 319 316 300
289 289 293 283 282 290 301 307 305 308 313 319 324 329 332 331 329 330 326 322 316 312 311 307 305 302 293 291 296 302 308 311 315 314 317 321 317 310
287 284 278 283 291 299 303 304 304 309 315 320 322 328 328 330 334 336 332 332 328 324 319 320 314 308 300 297 299 298 306 298 311 312 315 314 315 311
287 288 286 287 291 296 299 300 304 309 313 317 321 324 326 331 334 336 335 334 332 331 328 324 322 309 299 296 295 300 304 307 311 313 314 311 313 314
273 270 276 282 288 294 294 298 302 307 313 316 318 321 325 329 332 336 338 335 332 332 329 329 327 324 320 313 302 306 308 308 313 315 312 306 313 320
264 271 275 280 286 289 290 295 300 305 310 314 314 319 322 325 333 335 337 337 334 333 331 331 331 332 321 308 316 310 299 306 312 313 314 308 306 312
266 269 275 279 283 283 286 291 297 303 307 310 312 316 320 325 331 335 337 336 338 337 333 334 335 333 317 308 312 314 327 325 323 317 318 307 308 307
264 269 274 276 278 279 284 290 296 302 306 308 310 314 319 325 330 334 335 337 342 337 333 333 335 334 329 327 315 322 328 326 312 312 315 300 310 314
263 267 270 271 275 279 284 290 295 299 303 304 306 311 315 324 331 332 337 342 343 338 335 333 337 339 338 335 329 326 327 330 326 313 308 304 321 337
270 270 266 268 273 279 285 290 293 297 301 301 305 308 312 322 330 332 337 346 342 340 342 339 340 342 343 342 330 329 325 323 325 321 314 308 307 296